Starlink 30210

operational
NORAD ID: 57292 Int'l Des: 2023-096 Owner: SPXS Country: US Constellation: starlink
LEOCIRCULAR

About Starlink 30210

Description loading...

Live Position

Loading 3D Globe...

Upcoming Passes

Altitude History

Altitude vs Time

uPlot chart will show altitude changes over time

Two-Line Element Set

1 57292U 23096C 25306.50002315 .00111440 00000-0 36067-2 0 9992
2 57292 42.9872 171.5082 0029998 226.9331 85.4130 15.30507314 5887
Epoch: Nov 2, 2025 • Age: 14 hours

Current Status

Altitude 491.5 km
Velocity 7.61 km/s
Sub-Earth Point 16.96°N, 108.29°E
Launch Date Jul 10, 2023
Age 2.3 years
Type internet

Technical Details

Classification Payload
Mass 730.00 kg
Dry Mass 700.00 kg
Total Mass 730.00 kg
Length 0.30 m
Diameter 4.10 m
Span 29.00 m
Shape Box + pan
Manufacturer SPXS
Bus Type Starlink V2M
Phase Status In Orbit
Owner/State SPXS/US

Large Constellations

Loading constellations...